{"data":{"norad_id":62178,"intl_designator":"2024-225R","name":"STARLINK-32600","alt_names":[],"object_type":"PAYLOAD","status":"ACTIVE","operator":null,"country":"US","launch_date":"2024-11-30","launch_site_code":"AFWTR","launch_vehicle":null,"mission":null,"orbit_class":"UNKNOWN","rcs_meters":null,"size_class":null,"mass_kg":null,"dimensions":null,"purposes":["comms"],"wikipedia_slug":null,"has_3d_model":false,"image_url":null,"decayed_at":null,"tle_current":{"epoch":"2026-09-21T17:36:52.705440Z","epoch_age_seconds":71626,"freshness":"FRESH","line1":"1 62178U 24225R   26264.73394335  .00023206  00000+0  80900-3 0  9998","line2":"2 62178  70.0011  17.6366 0003808 271.7189  88.3549 15.29586773 99556","mean_motion":15.29586773,"eccentricity":0.0003808,"inclination_deg":70.0011,"raan_deg":17.6366,"arg_perigee_deg":271.7189,"mean_anomaly_deg":88.3549,"bstar":0.000809,"rev_number":9955,"period_min":94.14307350316,"perigee_km":474.4362124563,"apogee_km":479.65712033663,"semimajor_km":6855.1836663965,"source":"CELESTRAK","updated_at":"2026-09-22T09:00:49.537232Z"}}}